STARLINK-33628, 63067

Orbit data source: Space-Track

STARLINK-33628, 63067 is a payload satellite owned by SpaceX/Seattle (US) in LEO that was launched on Fri, 21 Feb 2025 UTC via an FALCON 9 launch vehicle from the Air Force Eastern Test Range (AFETR). Payload-class satellites include a variety of spacecraft equipped with specific instruments for various scientific and technological missions. These include communications satellites like Starlink; space stations such as the ISS; scientific satellites like the Hubble; Earth observation satellites from companies like Planet Labs, Umbra, and HawkEye 360; GPS; miniature CubeSats for education and research; and military/defense satellites.

Loading next visibility...
Identifier
63067, 2025-035R
Orbit
LEO
Country
Flag of USUS
Related business
Manufacturer
SpaceX/Seattle
Mission
Operational Commercial Communications
Bus & Motor
STARLINK V2MO, Unknown motor
Mass
575 kg wet, ~530 kg dry
Launch date (UTC)
2025-02-21 (1 year ago)
Launch vehicle
FALCON 9
Launch site
Air Force Eastern Test Range (AFETR)
Object type
Payload
Rocket body
Debris
Shape & HBR
Box + 2 Pan, 17.7 m
Radar Cross Section
36.964 m², Large (>1 m²)

Expand to show TLE details & history
Last TLE update: 11 hours ago

TLE from 11 hours ago
0 STARLINK-33628
1 63067U 25035R   26171.38775345  .00011429  00000-0  42408-3 0  9994
2 63067  42.9994 287.3017 0001229 233.8208 126.2530 15.27588241 75430
Epoch: 2026-06-20T09:18Z
TLE epoch observation values (Epoch: 2026-06-20T09:18:21.898Z)
Latitude
-0°
Longitude
-120.89265°
Altitude
483.298 km
Speed
7.625 km/s
True Right ascension
19h 09m 12s
True Declination
0° 00' 00"
Sunlit
Object was in full shadow at epoch
Visualization orbit readout
Latitude
Unknown
Longitude
Unknown
Altitude
Unknown
Speed
Unknown
Apparent Right ascension
Unknown
Apparent Declination
Unknown
Sunlit
N/A
Visualization observer readout
Local Sidereal Time
07:17:05
Azimuth
Unknown
Elevation
Unknown
Doppler factor
Unknown
Orbital elements
Apogee altitude
485.813 km
Perigee altitude
484.126 km
Semi-major axis
6,863.107 km
Eccentricity
0.00012
Inclination
42.9994°
RAAN
287.3017°
Arg. of periapsis
233.8208°
True anomaly
126.26436°
Mean anomaly
126.253°
Eccentric anomaly
126.25868°
Mean motion
3.81735 °/min
Orbital period
94.31 mins
BSTAR
0.00042408
Loading maneuver chart data...
Computing Atmospheric mass density...
Loading historical data...
Loading historical data...
Loading historical data...
Loading historical data...
Loading historical data...
Loading historical data...
Loading historical data...

Documentation

Showing up to 5 results
|